Wind_Speed
9 9 11 12 13 11 11 13 14 13 14 17 15 15 12 12 13 15 16 16 15 16 16 16 15 16 16 18 20 21 22 23 24 25 26 27 28 27 29 32 33 31 30
10 11 12 12 14 15 12 13 12 13 16 16 13 12 12 12 12 14 15 15 15 15 15 15 14 15 16 17 18 20 21 24 26 27 27 28 29 28 30 33 34 32 32
11 12 13 14 14 15 14 11 11 13 16 16 12 11 12 11 12 13 15 15 15 15 14 14 13 15 16 17 19 20 22 25 27 27 28 29 29 28 31 35 34 32 32
12 13 13 16 16 15 15 11 12 13 14 14 11 10 10 11 12 13 15 15 15 15 13 13 13 14 15 17 18 21 23 26 28 28 29 29 30 29 32 36 36 34 34
14 15 13 15 16 16 16 15 13 14 14 12 10 9 9 10 12 13 14 15 16 16 13 12 13 14 15 16 18 21 25 27 28 28 29 29 31 29 33 36 37 34 34
16 15 12 12 15 17 15 16 15 15 13 10 9 9 10 10 11 11 14 15 16 17 15 12 13 14 15 16 19 22 24 26 27 28 28 30 30 29 33 36 36 34 35
17 16 14 14 14 17 16 16 16 16 12 10 9 9 9 10 10 11 12 14 16 17 15 13 14 14 15 17 19 22 24 25 26 28 29 29 30 30 33 37 35 35 38
18 16 15 14 15 18 17 17 16 16 12 10 10 9 9 10 10 10 11 14 16 18 16 13 13 15 16 17 19 21 22 24 25 27 28 28 29 32 33 35 35 37 39
20 18 15 14 17 19 18 17 17 17 12 11 11 10 9 10 10 10 11 14 17 18 17 15 14 14 15 17 19 20 22 23 24 26 27 26 28 32 33 36 35 37 39
24 22 17 18 19 19 18 17 18 18 14 12 13 11 10 10 11 10 11 15 18 19 18 16 14 13 14 16 18 20 21 22 24 25 26 26 28 32 33 35 36 37 36
28 24 20 20 19 18 18 18 19 19 15 15 13 11 11 10 11 11 11 14 17 18 17 15 13 13 14 15 18 19 21 22 24 25 26 25 26 31 33 34 35 36 34
30 27 24 24 20 18 21 20 20 20 16 16 14 12 12 11 11 12 12 13 16 17 17 16 14 12 14 15 17 18 20 22 23 25 25 24 26 31 32 33 33 34 33
32 29 28 28 22 22 24 21 21 19 18 17 15 13 12 13 12 11 13 14 15 17 16 15 13 12 13 15 16 18 20 21 23 25 25 24 25 29 31 33 34 34 33
36 35 33 30 24 23 27 24 22 21 19 18 16 15 14 14 13 11 12 15 15 16 16 15 14 13 14 15 16 18 20 20 22 24 25 24 25 29 31 33 33 33 33
41 39 35 31 27 25 28 27 23 23 20 18 19 17 16 15 14 12 12 14 16 16 16 15 15 13 14 14 15 17 19 21 22 23 24 24 25 28 30 33 32 33 32
45 43 37 32 28 27 30 28 25 24 22 21 20 20 19 17 15 14 13 14 16 16 16 15 15 14 14 15 16 17 19 20 21 23 23 23 25 27 30 32 32 32 32
48 46 39 37 33 32 33 29 26 25 24 23 23 21 20 20 18 17 15 15 16 18 17 16 16 15 15 16 17 17 19 21 22 22 23 24 24 25 27 29 31 30 32
52 48 42 40 38 34 32 28 28 27 27 24 25 22 22 22 20 20 18 16 17 18 19 18 17 17 17 17 19 19 20 21 23 23 23 23 24 26 28 30 31 31 32
58 52 45 43 39 34 33 31 30 29 27 27 27 25 24 22 22 21 20 18 17 19 21 20 18 19 19 19 21 20 20 21 23 24 24 24 25 25 28 30 31 32 32
63 51 46 40 37 37 35 34 30 29 28 29 27 27 25 23 23 23 22 20 17 20 22 22 21 21 21 21 22 23 21 22 23 26 25 24 25 25 26 30 31 29 31
61 51 51 44 39 40 38 34 31 30 30 30 29 29 27 26 24 24 23 21 19 20 24 24 23 23 23 21 22 22 24 24 24 26 27 26 26 25 27 29 31 30 29
63 54 47 44 40 43 38 36 32 32 32 32 31 31 29 27 26 26 25 23 20 21 25 25 24 25 25 24 22 23 25 25 25 26 29 28 28 26 27 28 30 30 30
67 54 51 46 45 43 40 39 34 34 33 33 32 32 30 29 29 28 27 25 23 22 24 25 27 25 25 27 25 24 26 27 26 26 28 32 29 29 29 29 29 30 31
62 53 47 49 43 42 45 38 36 33 33 33 33 31 31 32 30 30 29 26 26 25 26 26 27 28 27 29 29 25 26 28 29 29 27 30 32 30 30 31 32 32 32
60 55 50 45 49 45 46 40 40 37 35 35 34 31 34 34 33 32 30 29 28 27 28 28 27 29 30 31 32 29 27 28 31 32 31 30 34 32 32 33 33 35 34
56 51 44 48 56 56 44 42 42 40 37 37 35 36 37 37 37 35 34 31 29 31 29 30 30 32 33 33 33 33 30 30 32 34 34 32 35 35 33 34 35 36 37
Wind_Direction
261 297 315 333 335 310 292 297 301 306 306 312 322 327 337 338 341 341 350 353 354 1 357 359 5 7 10 13 11 8 4 0 356 352 352 352 350 348 346 347 346 341 338
263 290 304 317 326 326 298 300 305 302 307 314 320 330 330 330 336 341 345 351 352 354 354 354 359 2 8 12 9 5 0 358 356 353 352 352 351 349 350 351 351 347 341
263 281 296 306 315 321 313 309 307 307 311 312 322 327 329 328 332 338 341 348 347 346 350 350 351 357 2 6 4 359 357 356 355 355 354 353 353 352 355 356 356 350 344
262 272 288 299 303 312 314 306 307 313 314 313 315 325 326 326 328 334 341 344 343 341 344 345 343 347 353 357 355 353 353 354 354 354 354 353 353 355 356 357 356 351 346
252 262 279 294 294 301 310 304 306 312 312 308 305 315 320 323 324 332 341 339 342 338 337 338 339 340 345 347 347 350 351 352 354 354 353 354 355 355 354 355 356 352 348
244 256 271 286 291 291 300 300 304 303 303 295 295 309 313 318 320 332 338 337 341 338 334 334 335 339 338 340 345 348 350 353 353 352 354 355 355 354 353 355 355 353 352
238 251 263 275 291 286 288 293 293 294 290 284 288 296 305 310 320 332 337 335 340 336 332 328 332 338 338 342 348 348 352 354 351 353 355 356 356 355 354 355 355 355 357
230 246 259 273 281 287 276 281 285 287 280 276 279 283 296 303 318 325 338 339 339 334 331 327 329 338 341 346 349 349 351 351 351 355 355 357 359 357 355 356 359 359 1
229 240 253 273 283 287 270 274 281 277 271 262 267 277 285 302 312 318 339 341 337 333 332 327 330 337 342 346 346 349 351 348 353 355 354 358 2 359 356 358 1 2 2
228 238 252 271 280 286 263 269 276 274 263 253 258 268 279 294 301 315 338 341 336 333 333 326 328 333 340 345 346 348 348 349 355 354 353 356 359 357 359 360 1 2 3
224 236 247 263 276 279 257 261 272 265 254 247 258 265 275 288 298 312 333 338 334 333 330 324 325 332 338 345 345 347 348 352 354 354 353 352 355 357 359 360 360 2 3
224 233 241 254 272 274 253 255 268 262 245 244 250 256 271 284 295 309 327 333 331 334 331 323 324 329 336 340 343 346 349 353 354 354 353 349 353 355 357 358 358 0 2
225 232 240 247 262 272 256 255 264 257 240 241 246 252 266 278 290 303 319 328 328 330 329 321 319 323 328 334 341 346 349 353 353 353 352 348 350 353 355 356 358 359 359
222 230 237 247 255 263 247 254 263 254 239 242 246 253 262 275 284 299 311 322 325 325 326 319 314 319 324 331 339 344 347 349 353 351 351 348 348 350 352 356 357 357 357
223 230 239 247 254 255 245 253 259 251 239 239 242 249 257 267 279 291 303 314 316 315 321 319 311 314 319 326 332 340 343 346 349 348 348 348 348 349 350 354 354 355 356
229 230 238 247 253 248 241 249 255 248 239 237 239 245 255 264 274 281 292 303 310 309 314 315 308 310 314 320 324 333 338 341 342 344 344 346 347 347 350 352 352 354 354
230 230 239 245 251 240 239 243 250 243 238 238 238 239 249 263 273 278 285 295 304 305 307 308 304 305 310 316 318 325 330 335 334 338 339 342 344 345 348 351 350 352 352
227 232 237 243 247 239 241 242 247 242 239 239 239 239 245 257 267 275 282 291 299 304 301 301 300 302 306 310 311 317 322 327 326 330 333 336 340 343 345 346 348 351 351
226 230 235 243 243 242 237 242 244 243 242 243 242 240 241 251 260 267 273 282 292 298 297 294 296 298 302 306 308 310 314 318 320 324 326 329 335 338 341 341 343 347 348
223 226 233 241 239 242 238 242 244 243 244 246 244 245 245 248 256 262 268 277 285 291 295 292 293 295 296 300 303 305 308 311 316 318 321 325 330 333 334 336 338 344 344
220 230 232 243 235 242 235 238 242 241 243 245 244 243 244 247 253 259 265 273 278 286 293 293 292 295 296 296 299 299 303 306 314 315 318 321 323 326 327 333 334 337 341
222 228 232 235 234 241 239 235 237 242 243 244 246 245 245 249 253 258 262 269 274 282 291 292 291 292 298 294 292 294 296 300 307 315 313 316 316 320 321 327 330 331 334
221 230 233 235 233 238 237 236 232 238 243 244 245 247 249 251 256 260 263 269 271 276 287 290 290 290 292 294 289 289 291 297 302 308 312 312 316 316 316 319 324 324 326
221 226 232 232 231 235 235 232 233 236 240 247 248 249 252 256 258 261 265 267 269 272 281 287 291 293 289 288 290 288 288 292 297 302 307 307 314 313 312 314 318 319 319
222 228 227 227 227 234 238 231 232 235 242 244 246 251 256 256 258 262 264 267 270 270 276 284 290 288 290 290 290 290 288 290 292 297 303 304 305 308 312 312 313 316 316
221 223 225 224 231 233 245 237 235 237 240 242 248 250 255 255 258 261 265 266 271 272 277 280 283 290 289 289 290 291 291 290 290 294 299 301 301 303 305 307 310 312 314
Height
5878 5877 5877 5877 5877 5876 5876 5875 5875 5874 5873 5870 5867 5865 5864 5862 5860 5858 5855 5853 5850 5847 5844 5842 5839 5836 5833 5831 5828 5825 5822 5819 5815 5811 5807 5802 5798 5793 5789 5783 5778 5772 5767
5875 5874 5875 5874 5874 5874 5873 5872 5871 5871 5870 5868 5865 5864 5862 5860 5858 5856 5854 5852 5849 5847 5843 5841 5839 5836 5833 5830 5827 5825 5822 5818 5814 5810 5805 5800 5795 5790 5786 5781 5775 5768 5763
5872 5872 5872 5871 5871 5871 5870 5869 5868 5868 5867 5865 5863 5861 5860 5859 5857 5854 5852 5850 5848 5846 5843 5840 5838 5836 5832 5829 5826 5824 5820 5816 5812 5807 5803 5798 5794 5789 5784 5778 5772 5766 5760
5868 5869 5869 5869 5868 5868 5867 5866 5865 5865 5864 5863 5861 5859 5858 5857 5855 5853 5851 5850 5847 5845 5842 5840 5837 5834 5832 5829 5826 5822 5819 5815 5810 5806 5801 5796 5791 5786 5781 5775 5769 5763 5756
5865 5865 5865 5866 5865 5865 5864 5863 5863 5862 5860 5860 5859 5857 5855 5855 5854 5851 5850 5848 5846 5843 5841 5838 5836 5833 5830 5828 5825 5821 5818 5813 5809 5804 5799 5794 5789 5784 5779 5773 5766 5760 5754
5860 5861 5862 5863 5862 5862 5862 5861 5861 5859 5858 5857 5857 5855 5853 5852 5852 5850 5848 5846 5844 5842 5840 5837 5834 5832 5829 5826 5823 5820 5816 5811 5806 5802 5797 5792 5787 5782 5777 5771 5765 5758 5752
5856 5857 5858 5859 5859 5859 5859 5858 5859 5857 5856 5855 5855 5854 5852 5851 5850 5849 5847 5845 5842 5840 5838 5835 5833 5830 5827 5824 5820 5817 5814 5809 5805 5800 5795 5791 5786 5781 5775 5770 5763 5757 5750
5851 5852 5854 5855 5856 5856 5857 5856 5856 5854 5853 5852 5852 5852 5850 5850 5849 5848 5845 5843 5841 5839 5836 5833 5831 5828 5825 5822 5818 5815 5812 5807 5803 5799 5794 5789 5784 5779 5774 5768 5762 5755 5747
5845 5848 5849 5851 5852 5851 5851 5852 5852 5851 5850 5849 5850 5850 5849 5848 5847 5846 5844 5841 5839 5836 5833 5830 5828 5825 5823 5820 5817 5814 5810 5806 5801 5797 5792 5787 5783 5778 5772 5766 5760 5753 5745
5839 5842 5844 5845 5846 5846 5846 5848 5847 5848 5847 5846 5846 5847 5847 5845 5844 5843 5841 5839 5836 5834 5831 5828 5826 5824 5821 5819 5816 5812 5808 5804 5800 5795 5790 5786 5782 5776 5771 5765 5758 5750 5743
5833 5836 5839 5840 5841 5841 5842 5843 5844 5844 5843 5844 5844 5845 5845 5843 5842 5840 5838 5837 5835 5832 5829 5827 5825 5823 5820 5816 5814 5810 5806 5802 5797 5793 5789 5784 5780 5775 5769 5763 5755 5749 5741
5826 5830 5832 5834 5836 5836 5837 5839 5839 5839 5839 5840 5840 5841 5841 5840 5839 5837 5835 5834 5832 5830 5827 5825 5823 5821 5817 5814 5811 5808 5804 5800 5795 5791 5786 5782 5778 5773 5767 5760 5753 5747 5739
5821 5825 5826 5828 5830 5831 5833 5835 5834 5835 5835 5837 5837 5838 5838 5838 5836 5835 5833 5831 5830 5827 5825 5823 5821 5819 5816 5814 5810 5806 5802 5798 5794 5789 5784 5780 5776 5771 5765 5759 5753 5746 5739
5813 5817 5819 5821 5824 5826 5828 5830 5830 5830 5830 5832 5833 5834 5834 5835 5834 5832 5830 5828 5827 5825 5822 5821 5819 5817 5815 5812 5808 5804 5800 5796 5791 5787 5783 5778 5774 5769 5764 5758 5751 5744 5737
5806 5810 5813 5815 5818 5821 5822 5824 5825 5825 5826 5828 5828 5829 5830 5831 5830 5829 5827 5825 5824 5822 5820 5818 5817 5814 5812 5809 5806 5801 5797 5794 5789 5785 5780 5776 5771 5767 5761 5756 5749 5742 5735
5799 5802 5807 5810 5813 5815 5816 5819 5820 5820 5822 5822 5823 5823 5825 5826 5826 5825 5824 5823 5821 5818 5817 5815 5813 5812 5809 5806 5803 5799 5795 5791 5787 5783 5778 5773 5769 5764 5759 5753 5746 5740 5734
5792 5796 5800 5803 5806 5808 5809 5812 5814 5814 5816 5817 5818 5818 5819 5820 5820 5820 5820 5819 5818 5815 5813 5811 5810 5808 5806 5803 5800 5796 5792 5788 5784 5780 5775 5771 5766 5760 5755 5750 5743 5738 5732
5783 5788 5792 5795 5798 5801 5802 5805 5807 5807 5808 5810 5812 5813 5814 5815 5815 5815 5815 5814 5812 5811 5809 5808 5805 5804 5802 5799 5796 5793 5789 5785 5781 5777 5772 5767 5762 5758 5753 5748 5743 5737 5730
5773 5778 5783 5788 5791 5793 5795 5797 5799 5801 5802 5803 5805 5807 5807 5809 5810 5810 5809 5808 5808 5807 5805 5804 5801 5798 5797 5794 5792 5789 5785 5781 5778 5774 5769 5764 5760 5755 5750 5745 5740 5735 5729
5762 5769 5775 5779 5782 5784 5786 5790 5792 5794 5795 5797 5798 5801 5803 5802 5803 5804 5804 5804 5803 5802 5800 5799 5797 5794 5791 5789 5787 5784 5781 5778 5774 5770 5765 5761 5757 5752 5747 5742 5738 5733 5727
5752 5760 5763 5768 5772 5775 5778 5782 5786 5786 5787 5790 5791 5793 5795 5796 5797 5798 5798 5799 5797 5796 5794 5793 5792 5790 5787 5784 5781 5779 5777 5774 5770 5765 5761 5757 5752 5748 5743 5739 5734 5729 5724
5743 5749 5755 5760 5763 5767 5769 5773 5777 5779 5781 5783 5785 5786 5788 5790 5791 5791 5790 5790 5790 5790 5788 5787 5785 5783 5783 5778 5775 5774 5770 5768 5764 5762 5755 5753 5747 5744 5739 5735 5731 5726 5720
5734 5740 5746 5750 5756 5758 5760 5764 5768 5770 5774 5776 5777 5780 5782 5783 5784 5785 5784 5783 5783 5782 5781 5780 5779 5776 5775 5774 5769 5767 5765 5762 5758 5755 5752 5746 5744 5738 5734 5730 5726 5721 5717
5723 5731 5737 5741 5745 5748 5752 5755 5759 5763 5766 5769 5771 5773 5775 5777 5777 5778 5777 5776 5776 5776 5774 5772 5771 5770 5767 5766 5764 5761 5758 5755 5752 5749 5746 5741 5738 5734 5729 5724 5720 5715 5711
5714 5721 5727 5730 5736 5739 5743 5746 5749 5755 5758 5761 5763 5764 5767 5769 5769 5770 5770 5768 5768 5767 5767 5766 5763 5761 5760 5758 5756 5753 5750 5748 5745 5742 5740 5736 5730 5728 5724 5718 5714 5710 5705
5704 5710 5715 5721 5726 5729 5733 5737 5740 5745 5748 5752 5754 5756 5759 5760 5761 5760 5760 5760 5760 5759 5759 5758 5755 5753 5752 5749 5747 5746 5743 5740 5737 5735 5731 5729 5723 5721 5718 5713 5708 5703 5699